Regional Weather Roundup
Issued by NWS

Home | Current Version | Previous Version | Text Only | Print | Product List | Glossary On
Versions: 1 2 3 4 5 6 7 8 9 10 11 12 13 14 15 16 17 18 19 20 21 22 23 24 25 26 27 28 29 30 31 32 33 34 35 36 37 38 39 40 41 42 43 44 45 46 47 48 49 50
000
ASUS43 KLOT 312208
RWRIL

ILLINOIS REGIONAL WEATHER ROUNDUP
NATIONAL WEATHER SERVICE CHICAGO/ROMEOVILLE IL
500 PM CDT TUE MAY 31 2016

NOTE: "FAIR" INDICATES FEW OR NO CLOUDS BELOW 12,000 FEET WITH NO
SIGNIFICANT WEATHER AND/OR OBSTRUCTIONS TO VISIBILITY.

* THESE STATIONS ARE NOT UNDER NWS QUALITY CONTROL. THEY ALSO MAY NOT
  REPORT WEATHER SUCH AS PRECIPITATION OR FOG.

ILZ001-002-007-009-015-016-024-312300-
NORTHWEST ILLINOIS

CITY           SKY/WX    TMP DP  RH WIND       PRES   REMARKS
MOLINE         CLOUDY    73  67  81 SE9       29.91F
STERLING*      PTSUNNY   72  65  78 E12       29.93F
SAVANNA*       CLOUDY    74  64  70 SE10      29.92F
$$

ILZ003-004-008-010-011-017-018-312300-
NORTH CENTRAL ILLINOIS

CITY           SKY/WX    TMP DP  RH WIND       PRES   REMARKS
ROCKFORD       CLOUDY    66  63  90 E12       29.97F
FREEPORT*      CLOUDY    68  62  81 SE14      29.96F
ROCHELLE*      CLOUDY    68  64  86 E10       29.95F
DE KALB*       LGT RAIN  65  64  95 NE12      29.97F
$$

ILZ005-006-012>014-019>023-312300-
NORTHEAST ILLINOIS

CITY           SKY/WX    TMP DP  RH WIND       PRES   REMARKS
CHICAGO-OHARE  RAIN      65  63  93 N8        30.02R FOG
CHICAGO-MIDWAY TSTM      67  62  84 NW8       30.03R
AURORA         LGT RAIN  67  65  93 E13       30.01R FOG
LANSING*       CLOUDY    69  61  77 NW8       30.01R
JOLIET*        CLOUDY    69  66  91 CALM      29.98F
WAUKEGAN       RAIN      66  61  84 SW6       30.03R
DUPAGE AIRPORT LGT RAIN  66  63  90 NE10      30.00S
KANKAKEE*      CLOUDY    69  61  75 N6        29.98R
WHEELING       RAIN      65  63  93 N5        30.04R FOG
MORRIS*        CLOUDY    69  65  86 NE5       29.96F
ROMEOVILLE*    LGT RAIN  66  63  88 NE7       29.99F
NORTHERLY ISL    N/A     66  60  81 NW13        N/A
$$

LMZ740>746-312300-
SOUTHERN LAKE MICHIGAN

STATION/POSITION SKY/WX   TEMP    WIND        PRES    VSBY  WAVE
                          AIR SEA DIR/SP/G                  HT/PER
                          (F)     (DEG/KT/KT) (MB)    (MI)  (FT/S)
SOUTHERN BUOY              61 56   80/  6/  6 1014.5          0
WILMETTE HARBOR            62 59  340/  8/ 10   N/A           1/ 2
HARRISON CRIB              65                   N/A
BURNHAM HARBOR             66     330/ 11/ 15   N/A
CALUMET HARBOR             66     300/ 13/ 17 1014.7R
BURNS HARBOR               75     120/ 14/ 21 1014.9R
MICHIGAN CITY              72     180/ 18/ 21   N/A
MICHIGAN CITY 6N           70 62   80/ 10/ 14   N/A           1/ 3
ST. JOSEPH                 71 67  270/ 12/ 14   N/A           1
$$

ILZ025>027-034>036-040-047-049-050-058-095>099-312300-
WEST-CENTRAL ILLINOIS

CITY           SKY/WX    TMP DP  RH WIND       PRES   REMARKS
QUINCY         CLOUDY    79  62  56 S8        29.89F HX  80
GALESBURG*     MOSUNNY   79  59  50 S7        29.91R HX  80
MACOMB*        MOSUNNY   82  58  44 SW12      29.92S HX  82
JACKSONVILLE*  PTSUNNY   82  62  49 S6        29.90F HX  83
PITTSFIELD*    MOSUNNY   81  64  57 S8        29.91F HX  82
$$

ILZ028>032-037-038-041>044-048-051>054-059>061-312300-
CENTRAL ILLINOIS

CITY           SKY/WX    TMP DP  RH WIND       PRES   REMARKS
PONTIAC        CLOUDY    76  63  63 NE14      29.95F
BLOOMINGTON    CLOUDY    78  61  55 NW6       29.95R
DECATUR        CLOUDY    73  60  63 SW7G22    29.95R
PEORIA         CLOUDY    78  60  53 SE5       29.92F
LACON*         CLOUDY    74  63  68 E5        29.93S
LINCOLN*       CLOUDY    80  68  67 SW7       29.93S HX  82
SPRINGFIELD    MOSUNNY   78  63  59 SE17      29.93S HX  80
TAYLORVILLE    CLOUDY    71  63  76 CALM      29.93F
$$

ILZ033-039-045-046-055>057-062-063-312300-
EAST-CENTRAL ILLINOIS

CITY           SKY/WX    TMP DP  RH WIND       PRES   REMARKS
CHAMPAIGN      TSTM      72  63  73 N21G28    29.92R
RANTOUL*       PTSUNNY   83  63  49 N7        29.92F HX  84
MATTOON        PTSUNNY   82  61  48 W5        29.91S HX  83
PARIS*         SUNNY     87  56  34 S7        29.92S HX  85
$$

ILZ079-100>102-312300-
SOUTHWEST ILLINOIS

CITY           SKY/WX    TMP DP  RH WIND       PRES   REMARKS
ALTON          PTSUNNY   82  66  57 S9        29.91  HX  85
BELLEVILLE     SUNNY     83  65  54 SW5       29.89F HX  85
CAHOKIA*       PTSUNNY   85  64  49 SE9       29.89F HX  86
SPARTA*        MOSUNNY   82  63  51 S5        29.92F HX  83
$$

ILZ064>066-069>071-074>076-080>082-084>086-088>090-092>094-312300-
SOUTH-CENTRAL ILLINOIS

CITY           SKY/WX    TMP DP  RH WIND       PRES   REMARKS
CARBONDALE     MOSUNNY   84  62  47 SW9       29.90F HX  85
CAIRO*         MOSUNNY   83  63  51 SW3       29.89F HX  84
EFFINGHAM*     CLOUDY    77  66  67 SW6       29.94S
MARION         PTSUNNY   84  64  51 SW6       29.90F HX  86
MT. VERNON     PTSUNNY   77  66  69 NE5       29.92F
CENTRALIA*     CLOUDY    82  70  68 CALM      29.91F HX  85
SALEM*         CLOUDY    75  67  75 N3        29.92F
METROPOLIS*    MOSUNNY   84  65  51 CALM      29.90F HX  86
$$

ILZ067-068-072-073-078-083-087-091-312300-
SOUTHEAST ILLINOIS

CITY           SKY/WX    TMP DP  RH WIND       PRES   REMARKS
LAWRENCEVILLE  MOSUNNY   89  57  33 SE15      29.91F HX  88
FLORA*         MOSUNNY   81  67  61 NW10      29.92S HX  83
FAIRFIELD*     PTSUNNY   85  59  40 SE5       29.89F HX  85
HARRISBURG*    PTSUNNY   84  68  57 SW5       29.90F HX  87
ROBINSON*      CLOUDY    83  63  50 S7        29.91F HX  83
CARMI*         CLOUDY    83  64  51 S8        29.90F HX  84
$$

ABBREVIATIONS USED IN REMARKS
   TC - TEMPERATURE IN CELSIUS
  WCI - WIND CHILL INDEX
   HX - HEAT INDEX
  VSB - VISIBILITY
$$





USA.gov is the U.S. government's official web portal to all federal, state and local government web resources and services.